Wind_Speed
4 7 6 3 2 4 6 4 1 3 3 3 2 1 1 2 4 6 3 1 5 8 5 5 7 4 2 2 3 4 4 2 4 3 3 3 3 3 4 4 5 4 6 10 13 15 18 20 20 22 23 24 25 26 28 30 31 32 32 33 33 33 34 35 36 36 37 37 36 36 36 34 32 33 34 35 37 37 39 40 39 38 39 39 38 39
5 8 4 2 3 0 4 3 2 5 5 4 3 1 2 1 6 6 1 4 4 6 2 3 5 3 1 2 3 3 3 2 2 2 2 3 3 3 3 4 4 4 6 9 12 15 18 20 20 21 22 24 25 26 28 29 30 30 31 30 30 30 30 31 31 31 31 32 31 31 31 31 29 29 30 31 33 33 34 37 39 38 37 38 39 38
7 6 3 5 4 3 2 3 5 6 5 4 3 2 3 3 6 4 2 8 8 5 3 4 3 2 3 3 3 3 2 1 3 2 2 1 2 3 3 4 5 4 6 7 9 14 17 19 19 20 21 22 23 24 26 28 30 31 31 30 29 28 28 27 27 27 28 28 28 27 28 29 28 28 28 27 29 31 32 34 36 38 38 37 37 38
5 1 2 4 1 3 3 7 6 5 4 4 5 4 3 4 4 2 3 9 7 3 4 5 3 2 4 3 3 4 3 3 4 4 4 3 2 3 4 4 4 4 5 6 7 11 15 17 18 19 20 21 22 24 25 28 31 32 32 31 29 28 26 25 24 24 25 25 26 26 26 26 26 27 28 28 30 31 32 33 34 36 37 37 36 36
4 2 2 3 2 2 6 10 8 6 5 4 4 5 4 5 3 4 3 6 5 3 4 5 0 1 5 5 4 4 4 4 4 4 4 4 4 4 4 5 5 4 5 5 6 9 13 16 17 18 19 20 21 22 24 27 30 31 31 30 30 28 26 24 22 22 23 24 25 26 26 26 26 28 30 31 32 32 32 31 31 32 34 35 35 35
4 2 1 2 4 7 8 8 7 4 4 4 2 3 4 6 5 6 5 4 3 3 0 3 2 3 4 6 6 4 4 5 3 4 4 5 5 4 4 5 5 5 5 5 7 9 13 15 16 17 18 19 21 22 22 25 29 30 29 29 28 29 27 24 21 20 21 22 23 25 25 26 26 27 28 29 29 30 30 29 28 28 30 32 33 33
2 4 3 4 5 9 8 6 4 2 5 3 3 3 4 4 4 5 3 2 2 1 2 4 3 3 2 4 6 5 6 7 5 5 5 5 5 4 5 5 5 5 5 5 8 10 13 14 15 17 18 19 21 23 22 25 29 29 28 28 27 28 28 24 21 19 20 20 21 22 22 22 22 22 23 24 25 25 26 27 26 26 27 28 30 31
1 5 6 5 6 7 6 4 4 2 6 1 6 5 6 4 3 3 1 1 1 1 2 5 3 2 4 3 5 5 6 7 7 6 6 6 5 6 6 6 6 6 5 5 6 9 13 14 15 17 18 20 21 22 23 25 28 28 26 26 25 26 27 24 20 19 19 20 20 20 20 20 20 20 20 21 23 23 23 25 25 24 24 24 26 28
0 4 4 5 7 6 4 0 4 2 4 4 8 7 6 4 3 2 2 1 0 2 2 6 4 1 5 3 3 4 6 7 8 9 8 7 6 6 6 6 7 6 6 6 6 9 13 16 17 18 19 19 18 19 23 25 26 25 24 25 24 25 24 21 19 20 21 21 20 21 20 20 21 20 20 21 21 22 22 24 24 24 23 22 23 24
2 1 2 4 5 2 0 3 3 4 2 6 8 7 3 2 1 2 3 2 3 3 2 3 4 2 4 3 2 3 5 7 8 8 8 7 7 7 7 7 7 6 6 7 9 12 15 17 18 18 19 18 17 19 23 24 23 22 21 23 24 24 22 20 19 21 23 23 23 23 23 22 23 22 22 22 22 22 21 22 23 23 23 22 22 22
1 1 1 3 2 1 1 2 1 5 1 4 5 5 3 4 4 3 2 3 5 2 4 3 1 3 2 4 3 4 5 5 5 5 6 7 7 7 6 6 6 6 5 6 9 13 16 19 19 19 19 17 16 20 23 22 20 19 19 21 22 23 22 21 21 22 24 24 23 24 25 25 25 25 24 24 24 24 22 22 22 22 21 21 21 21
4 4 3 1 2 2 3 0 1 2 2 4 4 3 3 3 4 4 5 4 4 3 5 4 1 3 2 6 4 5 6 6 6 6 7 8 8 7 6 6 6 6 6 6 7 11 15 17 18 19 18 15 16 20 21 19 18 19 20 21 22 23 23 22 22 22 23 24 24 24 24 25 25 25 26 26 26 26 25 24 23 22 21 21 20 21
3 3 3 3 3 2 3 2 3 4 5 6 4 4 4 3 4 4 4 3 1 4 4 2 2 0 5 8 7 7 8 8 8 8 8 8 8 7 6 6 6 5 6 6 6 8 11 13 15 16 15 13 15 19 20 17 17 19 20 21 23 24 24 24 23 23 23 24 24 25 25 24 23 23 24 24 25 26 26 26 25 24 22 21 20 20
2 4 3 1 2 2 4 3 3 3 4 5 3 4 4 2 4 3 4 3 2 5 3 3 4 2 5 6 7 9 9 9 9 8 8 8 8 8 7 6 5 5 6 6 6 6 10 13 14 14 12 12 15 19 19 17 17 18 20 21 22 23 24 24 24 24 24 25 25 25 24 24 23 22 22 22 22 23 24 25 24 24 23 22 21 20
1 4 2 1 1 2 3 2 1 1 1 3 1 4 3 3 3 1 3 2 4 6 4 2 2 3 3 4 6 6 5 5 6 6 6 6 7 7 6 6 6 6 6 6 6 7 11 14 14 12 10 11 16 20 19 16 16 18 20 21 22 23 24 25 25 26 26 26 26 26 25 24 23 22 22 21 21 22 23 23 23 24 24 23 23 22
2 4 3 1 1 3 2 1 2 3 1 1 1 4 2 2 4 2 3 4 2 5 5 2 2 5 4 5 4 2 4 3 4 6 5 7 8 6 6 7 6 6 6 6 5 7 12 15 13 10 10 12 16 20 19 16 15 17 19 20 21 22 24 25 27 28 29 29 28 27 25 24 23 23 23 22 22 23 23 23 24 24 24 24 24 24
2 3 3 2 4 4 1 1 3 3 1 1 2 1 2 3 5 3 1 1 3 2 4 2 3 5 4 5 4 3 4 6 5 7 7 9 9 7 7 7 6 6 6 6 5 7 12 14 12 10 11 12 15 19 17 14 14 16 18 20 21 22 24 26 28 29 29 29 29 28 25 24 23 23 23 23 23 24 24 24 24 23 23 23 23 23
2 2 3 1 2 1 1 3 4 3 2 3 2 1 1 1 3 4 0 3 4 1 4 2 4 6 3 3 4 3 6 8 8 9 9 9 9 9 9 7 6 7 6 6 7 9 12 13 12 12 13 14 16 19 17 13 13 15 18 19 21 23 24 26 28 28 27 27 27 27 26 25 24 23 23 24 25 25 25 25 24 23 22 21 21 21
3 1 5 1 3 1 3 4 3 3 3 4 3 2 3 2 1 1 2 1 1 2 5 4 5 4 3 5 5 4 7 9 10 10 9 10 11 10 9 7 7 7 6 6 6 7 10 12 12 13 15 15 18 20 17 14 14 15 17 19 21 23 25 27 28 26 25 25 25 25 26 26 26 26 26 26 26 26 26 26 24 22 22 22 22 23
2 2 3 2 1 0 2 2 1 2 3 3 2 2 2 3 3 1 1 2 2 2 3 4 5 4 6 7 6 8 9 9 9 8 9 12 12 10 8 7 6 6 6 7 6 6 9 12 14 15 16 16 19 19 16 13 14 16 17 19 21 24 27 29 27 24 24 25 25 25 25 26 28 29 29 29 28 28 28 27 25 24 23 24 25 26
2 2 3 3 3 1 1 2 5 5 2 1 2 1 2 1 1 0 1 2 4 3 2 2 5 8 7 5 7 10 10 9 9 9 9 10 10 9 7 6 6 6 7 7 6 6 10 13 15 17 17 16 19 18 13 12 14 16 17 19 21 24 27 28 25 22 23 24 24 26 27 28 29 30 30 30 29 29 30 29 27 25 25 26 27 28
1 2 3 2 2 2 3 3 3 6 6 4 3 3 3 3 3 1 2 2 2 3 4 3 4 11 7 4 7 9 9 8 9 9 8 8 8 8 7 7 7 7 8 7 6 7 10 13 17 18 17 17 18 15 11 12 14 15 18 20 22 24 26 25 23 22 24 24 25 27 28 30 30 29 29 29 30 30 30 29 27 26 27 28 29 30
2 3 2 3 3 3 3 4 1 3 4 4 2 3 4 4 5 5 3 3 1 1 2 4 2 11 6 6 7 8 7 7 7 7 8 7 7 7 7 7 7 8 8 7 7 9 12 15 18 18 17 17 16 12 10 12 14 15 19 21 23 25 24 21 20 22 24 26 28 29 30 30 29 28 28 29 30 30 29 27 26 27 29 30 31 31
2 3 1 3 4 2 3 4 4 5 5 2 1 2 4 3 4 5 5 3 2 3 2 3 3 11 7 2 4 4 3 5 5 6 8 7 6 7 7 7 7 8 8 7 7 10 13 16 17 16 16 16 13 11 11 13 14 16 19 21 23 23 21 20 21 23 25 27 30 30 29 28 26 27 28 29 29 29 28 27 29 30 31 32 32 30
0 1 2 2 5 6 5 5 5 4 0 3 3 3 3 4 6 4 3 3 1 6 8 4 6 12 6 2 1 2 3 5 6 7 7 7 6 6 6 7 7 7 7 6 7 9 11 13 14 14 15 14 12 11 13 14 15 17 20 21 20 20 19 20 23 26 27 28 29 28 27 26 26 27 29 29 29 28 28 30 31 32 33 32 30 28
1 2 3 3 1 4 4 4 3 2 2 2 2 4 5 6 9 5 3 3 3 5 8 7 8 13 8 0 1 4 5 7 9 8 7 7 7 7 6 6 6 6 6 8 8 7 8 10 13 14 15 14 12 13 14 15 17 19 20 19 18 18 20 22 25 26 27 27 26 26 26 27 27 28 29 30 30 30 30 31 31 32 31 29 29 30
3 1 3 5 6 7 7 7 4 3 2 4 5 6 6 6 8 6 4 4 5 3 4 12 14 15 20 15 10 9 7 9 10 8 8 8 7 7 6 6 6 6 6 7 7 7 7 9 12 15 15 14 14 15 16 17 18 19 19 19 19 20 22 23 24 25 26 26 26 25 26 27 29 30 30 30 30 30 30 30 30 30 29 29 30 30
5 2 4 7 9 10 9 8 3 0 4 8 8 7 8 8 8 8 7 8 5 4 9 19 12 10 21 22 16 14 11 9 9 9 9 9 6 6 5 6 7 7 7 7 7 8 8 8 10 14 15 15 16 17 17 18 20 20 19 20 21 22 22 23 23 23 24 25 25 25 26 28 29 30 30 30 29 28 28 29 29 29 30 29 28 25
5 4 4 4 7 11 9 9 6 4 6 8 10 11 10 9 12 14 17 13 8 7 17 20 10 11 19 20 19 20 15 12 11 10 9 8 6 6 6 7 8 8 8 8 8 8 9 8 10 12 15 16 16 17 18 19 20 20 20 21 22 22 22 23 23 22 22 23 24 26 28 29 30 30 29 28 27 27 28 29 29 29 28 25 22 23
4 4 2 2 5 10 9 9 8 6 7 9 13 14 12 12 15 18 18 15 12 16 23 21 18 21 21 20 21 21 15 11 10 9 8 8 7 7 7 8 9 9 8 9 9 9 8 9 11 13 14 15 16 18 19 20 20 21 21 22 22 22 22 22 22 21 21 22 25 27 29 31 30 28 25 25 27 29 29 28 27 25 22 20 22 26
1 2 0 3 3 8 7 5 4 3 5 9 15 16 14 14 14 16 16 13 11 17 23 20 17 20 21 19 18 16 13 9 8 8 9 8 8 9 9 9 8 9 9 9 9 9 8 9 11 13 14 15 17 18 19 20 21 22 21 21 21 22 22 21 20 20 21 23 25 28 30 30 27 24 24 26 28 29 28 27 24 21 19 21 25 27
2 2 1 5 3 6 3 5 5 5 4 10 18 21 19 15 12 12 12 11 12 15 17 12 10 15 18 13 9 9 9 8 9 9 10 9 8 9 10 9 8 9 10 10 10 9 8 8 9 11 13 15 17 18 19 21 23 23 21 21 21 22 22 21 21 22 23 24 26 29 28 25 22 23 26 28 28 28 27 25 21 19 21 24 25 26
4 3 1 3 1 6 3 4 4 6 7 11 14 14 14 11 9 7 8 11 13 12 9 8 11 14 11 6 6 9 10 9 10 10 9 10 9 8 9 9 9 9 10 10 10 9 8 9 10 13 15 16 17 18 20 23 24 23 21 20 20 22 22 22 22 23 24 25 27 27 23 20 21 25 27 27 27 27 24 20 19 21 24 25 25 26
4 5 3 2 2 5 5 4 5 6 8 10 5 4 7 8 10 10 11 12 13 11 10 11 13 13 11 9 11 14 14 13 12 11 9 8 7 8 9 9 9 10 10 10 9 8 8 10 12 13 15 16 17 19 21 23 23 22 19 19 21 22 22 22 23 23 24 25 25 23 19 19 23 26 26 27 26 24 20 19 23 26 26 26 27 27
5 5 2 2 2 4 4 5 5 9 9 6 3 2 5 6 7 9 14 13 13 14 15 17 17 17 17 15 13 13 15 15 12 10 9 7 6 8 10 10 10 10 9 8 7 6 8 10 12 14 15 16 17 20 22 22 20 18 17 19 21 22 22 23 23 23 24 24 23 21 20 21 24 24 25 26 24 20 19 23 26 27 27 28 27 27
7 5 2 2 2 3 2 2 3 9 11 13 11 3 3 2 2 2 11 14 14 15 15 17 19 19 17 15 14 13 12 11 9 8 8 8 9 10 11 11 10 9 8 7 6 6 8 11 12 13 15 16 18 21 22 19 15 15 18 21 21 22 21 21 22 23 23 23 22 21 21 23 24 24 24 24 20 19 22 25 27 28 28 28 27 26
7 5 2 1 3 2 2 4 5 9 17 19 12 1 3 3 5 4 5 9 9 11 12 14 16 17 15 14 14 10 4 6 10 8 7 10 12 12 11 11 10 9 8 7 8 9 11 12 12 14 16 18 20 21 18 15 14 17 20 21 20 20 20 20 21 23 24 24 23 21 22 23 24 24 23 21 18 20 24 26 27 28 28 27 26 25
4 3 4 4 3 2 2 5 5 6 12 12 5 1 1 3 5 6 1 9 8 9 12 13 14 15 13 12 10 4 4 4 11 8 5 9 11 9 9 10 10 10 9 9 10 11 10 11 13 15 18 19 20 18 15 15 17 19 20 20 19 18 18 19 22 24 24 24 23 23 23 23 23 24 22 19 19 22 25 26 27 28 27 25 25 24
3 2 4 4 4 1 3 4 3 6 12 9 2 1 1 3 4 5 4 11 10 7 11 13 13 13 12 10 7 2 3 5 12 9 3 7 7 6 6 6 7 9 10 10 10 10 10 11 13 15 18 18 17 16 15 17 20 20 19 18 17 16 17 19 23 25 25 24 24 24 24 24 23 22 20 19 21 24 25 26 27 27 26 24 24 25
2 2 2 4 7 4 4 4 4 6 11 7 4 4 3 3 3 5 7 12 7 6 9 11 12 12 10 8 5 4 4 7 11 10 3 7 6 6 7 7 7 8 9 9 8 9 10 12 14 16 17 16 15 16 17 19 20 18 17 17 16 16 18 21 24 25 25 25 25 24 24 24 22 20 18 20 23 24 25 27 26 26 25 24 24 25
1 1 2 4 7 5 6 6 5 7 10 7 6 8 7 2 4 1 8 10 5 7 8 9 10 11 8 6 5 5 8 10 11 12 5 5 5 5 8 10 10 9 9 9 9 9 11 13 15 16 16 15 15 17 18 19 19 17 17 16 16 17 20 22 24 24 25 25 24 24 24 23 21 19 18 21 23 24 26 26 25 24 24 24 24 24
2 2 1 2 3 4 4 4 4 8 8 4 8 8 6 3 2 7 7 3 3 6 7 8 9 8 7 8 8 8 11 11 11 12 8 5 5 4 6 8 9 8 9 9 9 10 12 14 14 15 15 16 16 18 18 18 17 17 17 17 18 20 22 23 23 23 23 24 24 24 24 21 18 17 19 22 24 25 26 25 24 23 23 23 23 23
5 3 2 3 3 2 1 1 3 8 5 9 12 5 4 5 7 6 4 2 3 5 5 6 8 7 7 9 10 11 12 12 10 10 8 6 5 4 5 7 8 9 10 9 10 11 13 14 14 15 16 16 16 17 17 17 17 17 17 19 20 22 23 22 22 22 21 22 23 23 21 18 18 18 20 22 23 24 24 24 23 22 22 21 22 23
5 5 3 3 3 4 3 5 5 4 3 12 11 5 7 12 10 5 4 5 5 4 4 5 7 8 8 9 11 12 11 11 10 9 7 6 5 4 5 6 8 9 10 9 11 13 12 14 15 16 16 16 16 17 17 16 18 18 19 20 21 22 22 22 21 20 20 21 20 19 20 21 21 20 20 21 22 21 22 22 22 22 21 20 20 20
7 7 3 4 5 5 6 9 6 2 4 10 10 9 8 10 11 8 7 9 8 6 5 5 8 9 8 9 11 11 10 10 10 8 6 5 5 4 6 7 9 10 11 11 12 13 13 15 16 16 16 16 17 17 17 16 17 19 20 21 22 21 21 21 21 20 20 20 19 20 23 24 21 19 20 20 19 18 20 21 22 22 21 19 18 19
4 3 2 2 3 4 9 12 10 8 8 10 12 14 12 11 11 9 9 10 11 10 8 7 9 11 8 7 8 9 10 10 8 7 5 4 5 5 6 8 9 10 11 11 12 13 14 15 16 16 17 17 17 17 17 17 17 19 21 21 21 21 20 20 20 21 21 20 20 22 24 22 19 19 19 18 16 16 18 20 20 21 21 20 18 17
2 3 2 4 3 4 9 13 11 12 13 9 10 13 14 14 15 13 10 11 13 13 12 11 11 11 9 7 7 9 11 8 6 6 5 4 5 6 5 6 9 10 12 12 13 14 14 14 15 16 16 17 18 17 18 18 18 19 20 21 21 20 20 20 21 22 21 21 22 23 21 18 18 19 18 17 16 16 18 19 19 19 20 19 18 17
1 3 2 6 6 6 12 16 16 17 18 12 9 11 12 13 15 14 12 12 13 13 12 12 10 8 8 7 6 8 9 6 5 6 6 4 5 5 4 7 10 10 11 12 13 14 14 14 15 16 17 18 19 19 19 19 19 19 19 20 20 20 19 20 21 21 21 22 23 22 19 16 17 17 18 17 15 16 18 19 18 19 20 19 18 19
3 1 2 2 5 9 12 15 14 16 18 16 11 10 10 10 13 13 11 11 11 11 11 11 8 6 6 6 5 6 7 6 5 6 6 5 4 4 6 9 11 11 12 12 13 13 14 15 16 17 18 19 20 20 20 20 20 19 19 20 20 19 19 21 21 21 22 23 23 20 17 16 16 16 16 16 16 17 18 18 17 19 21 21 19 18
1 4 2 1 5 10 12 14 13 11 13 16 17 15 11 8 9 10 10 9 9 9 8 8 8 6 5 5 5 4 6 7 5 5 6 5 4 6 8 10 11 11 12 12 12 13 13 15 17 18 19 20 20 20 21 21 21 20 20 20 19 19 19 20 21 21 22 22 21 18 16 15 16 16 15 15 16 18 20 19 18 17 19 21 20 17
4 5 3 2 8 12 15 18 16 11 11 16 19 19 15 8 6 9 11 10 9 8 6 6 7 6 4 4 5 6 6 7 6 5 6 6 7 10 11 11 10 10 10 11 11 12 14 15 17 18 19 20 20 20 21 22 22 21 20 20 20 19 20 20 21 21 22 21 19 17 15 15 16 16 15 15 15 17 19 22 23 21 17 17 17 16
Wind_Direction
53 64 48 73 51 356 341 337 79 97 93 116 102 67 260 291 307 291 293 325 104 91 49 83 103 97 84 306 294 289 294 32 53 40 34 11 5 359 357 355 348 343 331 342 357 5 10 13 15 16 16 15 16 16 13 11 9 7 5 4 6 7 8 10 12 15 17 18 17 16 16 14 13 16 18 21 24 24 25 27 28 25 22 20 18 16
49 69 28 278 210 258 344 323 91 84 74 83 100 33 331 17 330 309 211 335 16 100 117 139 109 87 140 272 282 282 298 8 20 26 28 355 343 335 336 336 328 309 311 333 348 356 3 6 9 13 15 15 14 14 12 8 6 4 1 0 1 2 4 8 11 14 17 20 19 17 17 15 13 14 15 17 20 22 23 26 28 27 25 22 20 18
54 70 337 296 234 202 359 26 92 96 94 70 60 27 349 7 341 313 59 4 8 95 168 200 129 117 202 245 264 276 303 282 269 246 233 285 321 323 318 314 318 317 322 332 339 345 351 356 0 3 7 10 9 8 8 7 5 2 359 356 354 355 358 3 6 9 12 15 17 17 17 17 16 15 15 15 17 20 22 25 27 27 26 25 23 21
79 79 294 335 299 194 48 42 68 82 75 53 46 40 331 341 359 314 13 6 357 69 150 179 146 157 198 231 247 248 254 249 250 237 239 242 247 282 285 282 296 310 319 323 325 331 339 345 349 353 356 359 1 4 6 7 5 1 359 354 350 348 350 355 360 3 7 8 10 12 13 15 16 15 15 15 15 18 21 23 25 25 25 25 25 23
86 289 289 13 2 102 66 36 36 45 27 10 46 52 319 316 331 252 293 344 348 32 119 153 100 235 191 209 232 221 228 247 243 234 252 252 241 255 266 267 267 274 289 301 310 318 325 332 338 344 348 350 354 358 2 4 1 358 357 354 350 345 342 345 352 357 360 1 3 5 7 10 12 12 13 13 12 13 16 19 21 23 23 24 25 25
73 325 59 70 26 57 68 43 25 31 19 345 11 38 316 297 295 272 297 343 25 11 258 124 11 305 192 204 225 208 215 241 230 221 245 249 249 250 257 265 264 266 269 274 288 301 311 319 327 335 340 343 345 349 355 358 356 354 353 352 349 345 340 337 342 351 354 357 360 1 4 6 6 8 10 11 9 8 11 13 16 19 21 22 23 24
55 356 55 93 63 55 63 58 21 44 67 358 301 350 322 279 277 286 323 38 81 306 302 63 57 273 246 212 218 202 214 237 231 224 237 240 249 248 250 261 264 273 273 276 287 293 302 310 317 324 330 335 338 343 349 351 351 351 349 348 346 344 340 334 333 342 348 350 355 357 358 1 1 1 3 4 4 4 5 6 9 13 16 19 20 21
40 8 23 47 63 57 52 47 349 48 96 284 292 334 324 305 286 279 20 107 185 242 324 24 52 237 277 240 199 193 216 241 236 229 236 233 240 247 251 261 259 265 268 273 287 292 298 304 309 315 321 328 337 346 349 348 348 348 348 347 346 343 340 335 329 333 341 343 345 348 348 350 352 351 351 355 357 357 358 360 2 5 9 13 15 17
67 23 15 41 56 52 48 59 276 24 96 260 293 323 310 294 263 225 121 157 18 54 330 338 12 271 275 259 165 194 223 247 238 224 228 226 232 244 251 261 260 261 266 266 271 281 290 297 304 310 314 324 340 349 348 347 346 346 347 348 349 347 343 342 335 331 334 334 333 337 338 339 341 341 341 344 347 349 350 352 353 356 359 5 9 12
136 153 188 77 61 45 325 229 228 71 57 276 301 321 332 45 33 80 92 106 47 40 240 299 359 14 284 265 158 192 228 246 238 218 220 222 226 239 248 261 265 267 270 270 273 277 286 294 301 308 314 323 339 348 346 345 343 343 346 347 349 352 352 353 348 339 337 335 329 328 329 330 331 332 333 333 336 340 342 343 345 347 350 354 359 4
312 291 209 82 62 220 191 230 156 89 356 300 337 336 5 40 39 58 56 77 63 326 237 194 105 95 308 277 207 198 218 211 208 212 218 219 227 238 246 258 264 270 272 273 279 282 288 295 300 308 317 325 336 344 344 341 340 342 346 346 346 350 351 352 350 345 343 342 337 333 331 328 326 326 326 326 327 330 332 334 336 338 341 345 349 354
350 5 1 1 326 23 63 13 349 55 359 11 21 354 9 7 15 31 360 37 73 282 242 193 169 124 198 264 240 226 230 193 186 213 216 215 225 233 239 250 255 263 268 270 276 281 287 293 298 307 317 324 333 339 339 336 339 342 344 344 343 345 348 347 347 346 344 345 345 343 340 336 333 330 326 322 322 323 324 325 327 329 330 335 340 344
11 359 331 322 317 18 72 36 342 359 19 21 12 31 45 10 5 15 339 3 136 246 225 164 21 126 221 253 253 241 237 215 206 215 214 213 221 230 236 245 251 256 266 271 270 275 282 286 291 300 309 318 328 334 333 332 337 340 341 342 341 341 344 345 346 346 345 345 345 345 344 343 342 340 335 329 325 324 324 323 321 322 323 325 330 336
348 309 313 346 314 12 88 81 348 328 12 11 8 67 78 65 27 340 299 328 293 265 255 75 50 281 265 275 244 233 233 218 211 213 215 216 220 231 238 243 256 263 268 271 269 271 275 278 281 290 300 311 325 331 329 328 334 338 338 340 339 338 340 341 342 343 344 343 342 341 340 341 343 345 344 341 337 335 334 332 327 323 320 318 319 325
89 293 297 97 290 30 78 110 155 184 40 0 50 108 111 131 121 232 242 266 291 291 294 36 80 213 259 280 231 232 252 226 215 221 222 232 234 238 250 258 265 267 267 270 270 268 269 273 276 282 296 312 326 330 326 324 331 335 336 338 337 335 336 337 338 339 339 338 338 338 337 338 340 342 344 344 343 342 341 340 336 331 327 322 318 318
118 255 252 356 8 83 73 301 100 102 80 338 89 89 59 170 148 155 188 191 257 311 292 264 217 216 230 268 264 324 317 262 237 245 243 249 249 247 257 260 258 257 261 262 265 266 267 272 273 275 292 308 322 327 319 315 324 330 334 336 335 332 332 333 333 333 332 332 332 333 335 336 336 337 339 340 340 340 340 339 337 335 333 330 327 323
98 282 262 19 24 63 50 294 75 86 140 16 57 82 241 179 126 107 261 299 58 357 282 260 266 287 314 296 315 7 297 270 253 251 246 245 250 251 250 252 249 249 258 259 257 259 263 268 268 271 286 296 313 319 309 303 315 324 330 334 333 331 329 329 328 326 325 325 326 328 330 333 334 333 333 334 334 334 334 335 334 332 332 333 332 329
138 291 263 160 75 34 332 37 57 55 103 102 114 186 182 75 79 99 105 356 40 309 276 277 268 293 329 302 325 337 267 263 253 246 247 250 252 251 249 250 252 256 267 269 264 261 259 260 263 275 287 293 309 315 304 296 309 319 326 331 331 329 327 325 322 320 319 320 321 323 326 328 329 329 328 328 328 329 329 330 330 329 329 330 329 328
106 41 285 248 133 218 355 39 31 345 35 98 149 162 103 93 306 63 99 2 14 278 284 297 285 273 217 235 278 261 239 250 251 244 245 249 246 245 250 253 254 265 274 270 268 262 255 256 265 279 287 292 307 311 299 294 308 316 320 325 327 326 324 321 316 312 313 316 319 321 321 322 322 322 322 323 323 324 325 325 324 323 324 324 324 325
96 117 269 318 74 302 359 57 203 290 348 41 59 23 51 130 176 182 129 164 167 225 269 308 318 274 220 208 221 238 240 243 246 241 236 241 242 239 243 246 252 262 264 262 263 255 251 258 271 282 284 290 305 305 292 293 308 313 315 319 321 320 321 318 311 306 309 315 319 320 318 317 317 317 317 318 319 320 320 320 318 317 318 319 322 324
65 114 230 308 358 3 225 205 189 183 185 70 56 355 337 65 120 198 205 154 136 158 219 289 303 273 248 192 199 240 254 243 234 233 234 238 239 237 236 240 252 260 259 260 257 251 255 264 276 282 280 290 303 298 286 296 309 312 314 315 315 316 317 313 305 304 311 315 317 317 315 313 313 312 312 313 314 316 316 316 314 313 316 319 320 321
127 137 189 270 310 211 229 255 191 175 171 156 156 186 182 136 112 98 291 276 118 148 183 166 274 277 267 163 196 237 247 240 232 229 237 237 229 232 235 235 245 256 258 256 252 254 261 271 280 280 279 291 298 289 284 301 308 310 313 313 312 313 312 307 302 307 314 315 314 313 311 311 310 309 309 310 312 313 313 312 310 312 315 317 318 317
146 106 127 250 248 221 270 326 30 131 125 123 148 162 142 127 123 133 214 254 189 184 183 112 258 271 258 157 194 231 235 244 238 223 231 233 226 230 236 240 245 250 251 248 249 258 266 276 280 277 281 291 291 282 289 301 303 306 309 310 311 312 310 304 303 309 312 311 311 310 309 308 307 307 308 310 311 312 311 309 309 312 314 314 314 314
108 78 73 283 297 328 337 344 6 33 66 96 224 154 142 147 146 153 174 185 181 205 179 100 253 263 270 159 197 234 253 263 251 228 227 229 232 235 238 246 247 242 243 242 248 259 267 274 275 273 281 286 279 278 290 294 296 302 305 307 308 308 306 302 305 310 310 309 308 308 308 307 307 309 310 311 311 310 308 308 309 311 312 312 311 310
185 105 95 357 333 339 347 349 342 344 139 201 224 183 163 115 105 116 129 112 238 212 175 158 246 257 271 60 102 264 260 253 243 229 229 232 240 244 242 246 239 233 241 246 252 262 265 268 269 271 276 275 269 277 287 288 293 299 302 303 303 301 300 301 306 308 308 307 306 305 306 307 309 310 310 309 308 306 305 306 308 309 310 310 309 309
165 173 123 106 268 277 290 291 278 248 209 231 213 191 188 138 134 151 127 120 239 219 167 179 242 264 275 189 205 249 240 253 256 242 236 239 243 250 251 245 236 232 245 254 257 261 263 264 265 269 270 264 265 278 283 285 291 296 298 297 295 294 296 301 305 306 306 304 303 303 304 307 309 309 308 306 305 304 304 305 306 308 308 308 307 307
107 189 171 166 198 222 237 245 229 153 182 248 241 211 200 171 157 141 114 172 206 162 204 233 237 268 282 277 269 265 244 247 259 254 250 248 244 250 249 242 241 239 245 255 257 260 264 263 263 265 262 257 265 275 279 284 291 294 294 292 292 293 296 300 302 302 301 300 300 301 303 305 307 306 304 303 302 303 304 305 307 306 306 305 305 305
95 286 236 194 220 239 245 256 272 218 235 246 246 227 204 181 162 162 194 209 164 112 262 255 230 239 269 274 278 278 268 260 261 262 266 266 261 255 250 252 256 255 256 258 260 264 265 263 261 258 253 254 266 273 276 284 290 292 291 289 290 294 296 298 299 297 296 296 297 299 301 304 304 303 302 302 302 303 304 305 304 303 303 303 303 306
118 254 240 185 245 262 263 270 276 269 255 252 253 246 224 193 181 199 221 216 166 194 254 265 260 247 261 273 278 277 279 283 282 281 281 278 271 259 262 272 269 265 265 264 264 264 262 261 256 246 246 256 265 270 276 282 286 288 287 286 289 293 296 297 296 292 291 292 294 299 302 303 302 301 301 301 303 304 304 302 301 301 301 301 303 308
147 242 234 150 276 277 272 272 268 266 272 271 264 254 239 219 206 213 230 225 205 230 251 262 272 271 268 269 272 276 283 287 285 286 282 272 270 268 267 269 269 267 267 266 270 269 262 257 248 242 247 257 262 269 277 282 285 286 283 285 290 293 296 297 292 287 288 291 295 299 301 302 301 300 301 303 304 303 301 300 300 299 297 299 306 310
179 245 185 84 321 286 285 311 308 280 272 276 275 265 246 234 224 225 236 233 221 241 253 259 267 271 268 265 268 277 285 284 275 271 268 264 265 271 268 261 262 269 272 273 275 272 264 252 244 243 248 255 264 274 281 286 290 286 282 284 289 294 297 295 288 287 291 293 297 300 301 300 299 299 302 304 303 301 300 300 297 292 294 303 309 309
166 231 19 60 356 278 314 19 344 320 298 276 275 269 254 238 224 220 225 217 209 230 250 261 259 258 264 270 275 271 265 266 264 260 265 265 255 257 265 265 260 263 271 277 275 269 260 246 239 243 252 261 271 279 286 292 292 284 279 283 290 296 297 291 287 291 294 296 300 301 299 296 296 301 305 304 302 301 300 296 291 294 304 309 309 306
149 156 120 87 271 274 316 10 338 347 327 283 266 254 243 230 215 223 235 222 213 216 231 242 241 250 267 289 283 272 264 261 262 259 262 269 263 254 254 257 259 262 266 270 268 264 256 243 239 248 259 270 277 282 291 294 288 279 278 285 294 297 293 289 291 294 296 300 303 300 294 293 301 306 305 303 302 301 296 293 299 308 311 310 307 305
135 129 150 159 206 267 293 340 341 325 292 277 269 185 191 192 194 222 245 231 213 209 220 240 255 267 278 274 267 273 275 269 267 264 259 261 266 265 258 252 257 263 262 260 258 255 246 243 251 260 268 276 281 288 295 294 284 276 280 291 296 294 290 290 295 297 298 302 302 295 290 297 306 306 304 303 302 296 291 300 311 313 311 308 306 303
144 130 154 168 173 255 306 15 334 280 257 260 293 226 212 202 192 234 263 251 223 221 232 247 260 263 263 266 266 267 271 272 273 273 268 256 244 254 263 263 259 259 259 255 248 237 240 252 265 274 279 283 288 295 297 291 281 278 288 298 297 291 289 293 297 299 300 301 297 289 292 304 307 304 303 304 298 289 294 309 314 312 310 307 304 300
147 142 153 162 174 263 340 78 235 275 293 294 290 264 194 207 150 257 282 263 228 221 229 239 251 256 259 265 265 262 269 284 288 274 258 249 240 239 249 257 257 255 251 245 239 247 265 277 281 283 287 292 297 300 297 288 284 290 298 300 295 290 292 296 298 298 300 300 294 289 296 307 307 303 303 301 293 293 306 313 311 309 308 305 302 299
140 141 147 202 202 206 233 234 257 310 311 295 284 245 134 178 161 151 275 269 224 204 215 229 245 254 256 258 261 266 300 318 299 275 226 224 235 235 237 245 247 250 249 248 260 276 285 290 293 295 297 299 300 299 293 288 295 301 301 299 293 291 295 298 298 298 300 299 294 291 300 307 305 303 301 295 293 304 312 312 308 307 306 303 301 298
131 160 168 192 227 137 172 274 300 309 291 279 265 228 172 177 157 134 328 295 263 207 202 218 236 248 252 256 261 284 37 327 293 284 213 211 228 228 232 242 240 244 254 264 275 283 285 289 297 301 300 300 297 293 292 298 305 305 300 296 292 292 297 299 299 300 300 297 295 295 300 304 305 301 295 293 303 312 312 310 307 306 305 302 299 296
76 34 124 173 251 141 149 244 242 244 268 273 199 171 182 164 148 97 356 297 274 212 197 209 227 239 245 249 245 133 83 288 287 291 214 201 219 212 217 237 234 238 251 260 267 277 286 293 298 298 297 295 290 289 297 305 307 304 297 291 290 291 296 299 301 301 298 297 298 297 299 304 304 297 291 299 312 314 311 309 307 304 304 301 297 295
85 26 103 199 241 205 163 236 244 240 260 254 164 162 192 183 107 55 317 284 257 195 193 198 214 231 234 232 212 161 188 245 276 291 234 176 196 204 206 226 236 239 249 251 254 271 286 293 295 294 292 288 285 293 303 306 304 298 291 288 289 292 297 301 301 300 298 299 299 297 299 305 300 290 293 308 315 314 311 308 306 305 305 303 301 299
176 232 181 219 245 216 191 239 269 266 259 238 168 167 176 148 71 66 267 266 215 191 201 192 208 228 225 210 195 199 223 233 255 278 268 178 190 207 209 225 239 242 246 250 258 274 285 289 290 288 284 283 288 298 304 303 298 292 287 289 290 293 300 303 301 298 299 300 299 298 302 303 295 290 303 315 315 313 311 309 307 307 307 306 304 302
186 216 213 213 242 218 199 228 278 283 270 187 145 162 161 134 226 236 252 271 165 189 206 202 216 225 216 214 215 225 245 247 249 265 268 235 228 224 210 219 225 230 239 248 263 279 285 286 284 278 276 281 291 298 301 298 292 288 287 287 289 297 305 304 300 300 301 301 301 302 302 299 294 299 311 317 317 315 312 311 311 310 308 307 304 300
174 183 223 206 192 168 118 161 266 285 273 129 123 138 183 197 231 249 280 294 208 196 201 214 226 222 216 230 235 235 250 260 259 261 261 246 237 234 226 221 220 230 241 250 266 282 284 279 274 271 274 282 291 296 298 294 288 287 286 284 290 302 307 304 302 303 301 301 303 303 301 300 303 309 314 317 319 316 312 312 313 311 309 307 304 301
186 183 222 233 184 143 166 202 214 258 192 150 151 186 210 216 237 272 305 282 255 219 207 227 242 233 219 235 253 256 260 267 268 264 260 250 238 230 235 233 230 239 247 256 273 286 283 272 268 270 275 282 291 295 295 291 287 286 283 284 294 305 306 304 304 302 299 300 301 300 302 306 308 309 314 319 320 317 313 313 313 311 309 307 304 301
207 186 202 238 208 195 233 243 242 243 182 187 215 249 244 239 253 264 271 280 280 260 237 245 261 256 237 234 253 265 267 267 268 265 256 253 248 235 240 243 239 243 252 262 275 284 279 270 269 273 277 284 292 295 293 290 287 283 282 288 299 306 305 303 302 299 298 296 294 297 304 305 304 306 314 320 320 315 313 313 313 311 309 306 303 298
230 154 121 242 247 272 277 267 257 254 240 220 233 253 262 265 266 262 260 268 272 269 265 262 265 268 263 243 244 259 263 261 263 261 249 246 251 243 239 244 242 243 251 263 273 279 278 273 272 274 279 286 292 294 293 290 286 283 285 293 301 305 305 302 298 296 294 290 291 300 303 299 298 306 315 319 318 314 313 313 311 308 306 304 301 297
291 105 152 247 275 309 285 276 274 274 268 249 236 253 263 262 260 260 257 256 262 268 271 269 268 271 269 249 238 254 263 259 254 260 254 237 246 248 237 236 240 241 249 261 273 279 278 274 272 276 280 286 292 296 294 291 290 289 290 294 301 305 303 299 295 293 290 289 295 301 299 293 297 307 314 316 315 314 315 315 313 308 304 302 301 300
55 104 206 250 256 256 267 279 289 289 283 271 243 244 256 260 261 261 256 255 261 265 267 268 268 268 269 260 242 252 266 262 241 254 261 245 242 248 238 237 240 243 252 263 273 279 278 274 274 278 281 285 293 299 296 293 293 295 294 295 301 305 301 296 293 291 288 291 297 297 292 291 298 306 311 312 310 312 317 320 318 309 303 300 298 297
97 164 215 248 271 269 274 284 292 293 294 293 279 259 252 256 264 268 267 264 264 266 269 273 274 265 264 268 257 251 264 263 242 245 260 261 255 250 242 240 241 243 252 264 273 278 278 276 277 279 280 286 295 300 297 295 296 297 297 299 302 304 299 294 292 289 288 292 295 292 287 289 298 305 308 305 304 310 317 320 318 309 303 301 299 293
104 256 238 24 300 288 291 297 302 304 302 301 299 295 287 271 263 271 279 280 276 273 273 278 284 278 260 258 254 247 260 265 254 248 259 263 262 258 251 244 241 243 253 267 276 279 279 280 281 280 281 289 298 300 297 296 298 300 300 302 304 304 298 292 291 289 289 292 292 287 284 290 300 305 303 298 301 311 318 320 320 313 304 301 300 295
217 237 189 235 277 281 288 293 298 300 290 288 293 299 303 302 280 278 286 289 287 289 287 279 284 289 281 259 238 228 248 265 266 264 271 273 268 263 259 249 241 246 261 273 278 282 284 285 284 282 285 293 299 299 298 297 299 302 304 306 308 305 298 293 290 287 288 291 288 282 283 291 300 302 298 294 300 311 318 321 323 322 315 303 299 299
Height
841 850 862 866 871 872 869 870 866 863 864 863 866 869 871 874 870 864 863 868 870 882 903 905 904 909 907 905 904 900 900 898 896 895 894 894 892 891 890 888 887 885 883 882 880 879 877 875 874 872 870 869 867 866 864 862 860 858 856 854 851 850 848 845 842 839 837 834 831 829 827 825 823 821 819 816 813 812 809 805 802 801 799 797 794 793
844 858 872 873 873 874 874 874 869 867 867 868 871 871 870 873 872 866 865 868 865 875 901 907 905 909 907 904 903 900 900 897 897 896 894 893 892 890 890 888 886 885 882 881 879 877 876 874 873 872 870 868 866 865 863 862 861 859 857 855 853 851 849 847 845 843 841 839 837 834 832 830 827 825 822 819 816 815 812 808 805 803 801 799 796 795
858 868 873 874 877 877 876 875 870 870 872 871 872 868 866 871 870 865 866 868 866 873 892 904 905 906 906 903 901 900 900 898 896 896 894 892 892 889 888 887 885 883 881 879 878 876 875 874 872 871 869 868 866 864 864 862 860 859 857 856 854 852 850 848 846 845 843 841 840 838 836 833 830 827 825 823 820 818 815 811 808 805 803 801 798 797
863 870 872 874 877 874 873 875 872 869 870 871 871 869 871 874 872 868 867 869 871 874 882 896 903 905 905 902 902 899 897 897 895 894 894 892 890 888 886 886 884 882 881 878 877 876 874 873 872 870 869 867 866 864 863 862 860 859 857 855 854 852 851 849 847 846 844 842 841 839 837 835 832 829 827 824 821 819 815 812 810 807 805 803 801 800
865 872 875 876 876 873 868 872 872 865 863 869 872 873 875 877 878 876 874 872 874 879 883 890 889 890 899 901 898 898 896 895 894 892 892 890 888 887 885 884 883 881 880 878 877 875 873 872 871 870 869 867 866 864 862 862 860 859 857 855 854 853 851 849 847 845 844 842 840 838 836 833 831 828 825 822 820 818 816 813 811 809 807 806 803 802
870 874 876 874 873 872 868 870 877 870 863 866 867 871 875 878 880 880 879 873 867 871 877 877 867 868 891 901 893 894 896 893 892 891 890 888 886 886 884 883 882 880 879 878 876 874 873 871 870 869 868 867 865 864 863 862 861 859 857 856 853 852 850 849 847 845 843 841 839 837 834 831 828 826 824 822 821 819 817 816 814 812 810 808 806 805
872 875 875 873 871 870 870 872 878 874 868 866 864 869 876 880 882 880 879 872 864 866 871 871 867 870 885 894 891 892 894 892 890 889 888 886 884 883 883 880 879 879 877 876 875 873 872 870 870 868 867 867 865 864 863 861 860 858 857 855 853 851 849 848 847 845 843 841 839 837 835 833 830 828 826 825 824 822 820 819 816 815 812 810 809 807
871 871 871 871 869 870 871 873 876 876 871 866 864 869 876 879 880 879 876 873 870 870 872 873 877 880 876 878 888 891 890 891 888 887 885 883 883 880 879 878 877 877 875 875 874 871 871 869 868 867 866 866 865 863 862 860 859 857 856 854 852 851 848 847 846 844 843 840 839 837 835 834 832 830 828 826 825 823 822 820 818 816 814 812 810 808
872 869 871 868 866 870 873 876 878 876 872 867 868 874 878 879 879 879 874 873 879 874 871 879 881 879 872 872 888 892 890 889 884 883 882 879 880 878 877 876 874 875 873 872 872 870 869 868 866 866 865 865 864 862 861 859 858 856 855 853 851 850 847 846 845 843 842 840 838 837 835 834 832 830 829 826 825 824 822 821 819 817 815 813 811 808
871 869 873 868 868 872 873 878 878 875 875 873 873 874 877 880 879 880 875 872 881 873 870 887 886 877 873 871 883 889 886 883 876 876 878 875 876 875 874 874 872 873 872 870 870 868 867 866 865 865 864 863 863 861 860 859 858 856 854 853 850 849 847 845 844 843 842 840 838 837 835 833 831 830 828 826 824 823 821 821 819 817 816 813 811 809
872 871 874 872 873 875 873 877 878 878 880 875 876 875 872 878 878 881 886 882 879 868 870 890 889 884 883 869 870 875 870 869 868 870 874 873 874 872 871 872 870 870 870 868 868 866 865 864 864 863 862 862 861 860 859 857 856 855 853 852 849 849 847 845 843 842 841 839 837 836 835 833 831 829 827 825 823 822 820 819 818 817 815 814 812 810
872 869 873 875 875 876 874 874 877 881 882 875 880 879 864 869 876 875 883 885 872 861 872 892 890 890 888 861 853 862 862 865 866 864 867 869 870 870 869 869 869 868 867 867 866 865 864 863 862 862 861 861 860 858 858 856 855 854 852 851 848 847 846 844 843 841 839 838 837 835 834 832 830 828 827 825 823 821 819 818 817 816 815 813 812 810
874 873 878 879 877 879 872 870 874 875 878 877 883 881 861 865 875 869 875 885 877 869 878 891 888 887 881 856 847 856 858 863 865 861 863 865 866 866 866 866 866 866 865 865 864 863 863 861 860 861 859 859 858 857 856 855 853 852 850 849 847 845 844 842 841 840 838 837 836 834 833 831 829 828 826 825 823 821 819 817 816 815 814 812 811 810
873 876 880 877 875 879 874 874 877 874 878 882 885 883 869 872 879 875 885 892 882 877 882 889 890 883 870 852 848 850 851 856 861 862 862 862 864 863 863 864 863 864 864 862 863 861 860 860 858 859 858 857 857 855 854 853 852 850 849 848 846 844 843 841 839 838 837 835 834 833 832 830 828 827 825 824 822 820 819 817 815 814 813 811 810 809
866 864 873 875 874 878 877 880 882 881 884 886 888 887 880 884 886 882 890 888 882 888 891 890 885 871 854 845 847 850 854 860 860 861 864 862 863 863 862 863 862 862 862 860 860 859 858 857 856 857 856 855 855 854 852 851 850 849 847 846 844 843 841 840 838 836 835 833 832 831 830 828 827 826 825 823 822 820 818 816 815 813 812 810 809 808
871 865 877 880 878 880 879 882 885 884 885 888 892 890 887 895 895 893 900 901 904 909 903 891 875 863 855 849 857 862 859 863 863 862 865 863 861 863 862 862 861 860 860 859 858 857 856 855 855 854 854 853 853 852 851 850 848 847 846 844 843 841 840 838 836 835 833 831 830 828 828 826 825 824 823 822 820 819 817 815 814 812 810 809 807 806
870 870 882 882 881 885 883 884 888 885 881 885 892 892 895 901 898 899 907 915 922 911 896 890 872 861 860 850 858 872 864 861 865 862 863 862 860 862 860 859 859 858 857 856 856 855 854 853 853 853 852 852 851 849 848 847 846 845 844 842 841 839 838 836 835 833 831 829 828 826 825 824 823 823 821 820 819 817 815 814 812 811 809 807 806 804
872 871 881 884 880 886 890 887 888 890 886 884 888 893 898 900 899 905 908 912 922 909 891 891 881 868 867 854 854 868 866 861 863 860 860 860 859 859 857 855 855 854 853 854 853 853 852 851 851 850 850 849 848 847 846 845 844 843 842 840 839 837 836 835 833 831 829 828 826 824 823 822 821 820 819 818 816 815 813 812 810 809 807 806 804 803
882 870 876 888 884 887 893 888 884 889 891 886 888 893 896 895 897 906 906 901 910 913 896 893 893 882 873 860 846 847 852 852 855 858 859 857 855 854 852 852 852 851 851 852 851 850 850 849 848 848 847 847 846 845 844 843 842 841 840 839 837 836 834 832 831 829 827 826 824 823 821 820 819 817 816 815 813 812 810 809 808 806 805 804 802 800
888 874 872 887 892 890 890 888 886 887 891 891 892 895 896 898 900 905 911 907 906 913 906 896 889 870 856 851 839 834 840 842 845 853 854 851 849 849 849 849 849 849 849 849 848 848 847 846 846 845 844 844 843 842 841 840 840 839 838 837 835 834 832 830 829 827 825 824 822 821 819 818 816 814 813 811 810 809 807 806 805 803 802 801 799 798
890 881 874 883 895 893 884 883 884 882 886 890 890 895 898 904 911 909 914 919 911 909 912 907 886 852 835 840 837 832 836 838 840 844 845 845 846 845 847 847 846 846 846 846 845 845 844 843 843 842 842 841 840 840 839 838 838 836 836 835 833 832 830 828 826 824 823 821 820 819 817 815 814 812 810 809 807 806 804 803 802 800 799 797 796 795
886 884 880 881 884 882 878 883 885 880 882 884 884 891 894 899 908 905 906 919 922 913 909 910 894 851 825 832 834 831 833 834 838 841 840 842 843 842 844 843 844 844 843 843 842 841 841 840 839 839 838 838 837 837 837 836 835 834 833 832 831 829 827 825 824 822 821 819 818 816 815 813 811 809 808 806 804 803 801 800 799 797 795 794 793 792
887 887 884 878 877 880 884 890 890 884 884 886 887 894 899 902 903 899 897 908 921 922 916 923 913 858 820 826 830 828 832 834 837 840 838 839 840 840 841 840 841 841 840 840 839 838 838 837 836 836 835 835 834 834 834 833 832 832 830 829 828 826 824 823 822 820 818 817 815 814 812 810 808 806 804 803 801 800 798 796 795 794 792 791 789 788
886 887 882 875 876 887 894 894 892 890 891 891 893 900 902 899 897 898 902 907 914 917 914 924 914 853 814 828 834 832 838 838 838 840 838 838 839 838 839 838 838 838 837 838 836 836 836 834 833 833 832 832 831 831 831 830 829 829 827 826 825 823 822 820 819 818 816 815 813 811 809 807 805 804 801 800 798 796 795 793 792 790 789 787 786 785
880 882 882 875 869 871 878 883 885 889 893 889 890 899 898 897 905 910 915 920 914 905 902 910 894 841 819 836 837 834 840 836 836 840 837 837 837 835 836 835 835 836 834 835 834 833 833 832 831 830 829 829 828 828 828 827 826 825 824 823 822 820 819 818 817 815 813 812 810 808 806 804 803 801 799 797 795 793 792 790 788 787 786 784 783 782
878 882 882 875 868 863 857 857 862 873 886 887 886 893 894 897 905 902 907 917 908 900 904 898 867 826 815 830 831 829 836 833 831 835 834 834 833 831 832 832 832 833 831 831 831 830 830 829 828 827 826 826 825 824 824 823 823 822 820 820 819 817 817 815 814 812 810 809 807 805 803 802 800 798 796 794 793 791 789 787 785 784 782 781 780 778
886 889 883 874 870 865 854 851 860 870 877 878 880 887 891 896 901 897 901 905 898 902 902 876 852 835 821 820 823 824 828 827 826 828 828 829 828 827 829 829 828 829 828 828 828 827 827 826 824 824 823 822 822 821 821 820 819 818 817 816 816 815 813 812 811 809 807 806 804 802 800 799 797 796 794 792 790 788 786 784 783 781 780 778 777 775
883 882 882 880 872 866 863 863 870 875 872 870 873 880 885 893 900 898 892 885 884 896 878 841 842 854 832 815 817 818 819 821 822 823 822 822 823 824 825 825 825 825 825 825 825 824 824 822 821 821 819 819 819 818 818 817 816 815 814 813 812 811 810 809 807 806 805 803 801 799 798 796 795 793 791 789 787 786 784 782 780 779 777 776 774 773
880 876 883 888 876 871 876 876 876 879 876 873 873 876 881 889 895 889 880 876 879 879 853 825 837 848 830 817 816 811 812 816 815 817 818 818 820 821 822 822 822 822 822 822 821 821 820 819 818 817 816 816 816 815 814 814 813 812 811 810 809 808 807 806 804 803 801 800 798 796 795 793 791 790 788 786 785 783 781 780 778 776 775 773 772 771
880 875 888 896 883 874 877 878 880 883 880 876 875 875 877 882 885 881 873 872 875 867 847 837 844 840 822 816 814 807 810 814 814 815 816 817 818 818 819 820 819 819 819 818 818 817 816 815 814 813 813 813 812 812 811 810 809 809 807 807 806 805 804 803 801 800 798 797 795 794 792 790 788 786 785 784 782 780 779 777 776 774 773 772 771 770
879 877 893 899 884 874 874 878 882 886 887 883 875 870 872 874 877 879 874 872 875 867 850 847 855 843 817 810 812 810 810 812 813 814 814 814 815 815 815 816 816 815 815 814 814 813 812 812 811 810 810 810 809 809 808 807 806 805 804 803 802 801 801 799 798 797 795 794 792 791 789 787 785 784 783 781 780 778 776 774 773 772 771 770 769 768
881 885 894 896 881 868 875 885 883 882 885 879 863 851 852 858 863 863 861 861 861 855 849 855 857 835 808 805 810 810 810 812 811 812 812 810 811 812 811 811 812 812 811 811 810 809 809 808 808 808 808 807 807 806 805 804 803 801 801 800 799 798 797 796 795 793 792 791 789 787 786 784 783 781 780 778 777 775 773 772 771 770 768 767 766 765
887 880 884 893 876 862 880 892 883 882 876 850 828 819 820 831 845 850 849 848 847 845 844 842 828 808 800 806 809 806 807 809 807 807 807 805 805 807 808 808 808 808 807 807 806 805 805 805 805 805 804 804 804 803 802 801 799 798 798 797 796 796 794 793 792 790 789 788 786 784 783 781 780 779 777 775 773 772 770 769 768 767 765 764 763 762
894 879 883 894 873 861 885 893 880 880 861 821 808 814 812 815 827 832 830 831 835 835 829 819 806 801 803 805 803 802 801 799 799 800 800 801 802 803 804 804 804 803 803 802 802 802 802 802 802 802 802 801 801 800 799 798 796 795 795 795 794 793 791 790 789 787 786 784 783 781 780 779 778 776 774 773 771 769 768 766 765 764 763 761 760 758
889 883 891 901 885 873 885 887 872 854 829 811 818 828 824 820 824 826 820 820 826 826 821 815 808 803 801 799 799 800 797 794 795 796 797 799 801 801 800 800 799 799 798 798 798 799 799 799 799 799 799 798 798 797 796 794 794 793 793 792 791 789 788 787 785 784 783 781 779 778 777 776 775 773 771 770 768 767 765 763 762 760 759 758 756 754
880 886 889 895 894 881 874 873 856 827 810 808 813 824 831 830 832 832 817 806 811 817 817 814 807 800 799 798 796 795 795 795 796 795 796 797 797 797 796 794 794 794 794 794 795 795 796 796 796 796 795 795 795 794 792 791 791 791 790 789 788 786 785 784 782 781 779 778 777 775 774 773 772 770 769 767 766 764 762 761 759 758 756 754 752 750
876 882 882 884 887 880 873 869 854 835 820 801 794 813 829 825 824 826 811 793 793 804 808 806 801 798 796 795 793 794 798 800 796 790 790 791 790 790 790 789 789 790 790 791 792 792 793 793 793 793 792 792 791 790 789 789 789 788 786 785 784 783 782 781 779 778 776 775 774 772 772 771 769 767 766 764 763 762 760 758 756 755 753 750 748 746
877 876 874 874 877 882 885 879 867 851 820 788 792 820 829 823 823 825 818 800 786 789 797 796 793 793 791 790 792 795 800 800 790 780 782 785 785 785 786 786 787 787 788 789 789 789 790 790 790 790 789 788 788 787 787 786 785 784 783 781 781 780 779 778 776 775 773 772 771 770 769 767 766 764 763 762 760 759 757 756 753 751 750 748 745 743
880 879 877 876 876 882 885 877 870 853 811 787 805 826 829 828 824 821 820 800 775 774 787 789 788 788 787 788 791 794 800 798 784 774 777 781 781 782 784 783 784 785 785 786 787 787 787 787 787 787 786 785 784 784 784 783 782 781 779 778 778 777 776 775 773 772 770 769 768 767 765 764 763 762 760 759 758 756 755 753 750 748 747 745 743 740
881 880 883 881 874 878 883 876 870 850 813 800 815 826 830 830 822 822 821 791 763 769 780 781 782 782 781 785 790 794 797 791 777 770 773 777 778 780 781 781 782 783 783 783 784 784 784 784 784 783 782 782 781 781 780 779 778 777 776 775 775 774 773 772 770 769 767 766 765 763 762 761 760 759 758 756 755 753 752 749 747 745 743 742 740 737
885 885 886 883 876 881 884 876 866 842 809 804 819 825 827 828 823 822 806 772 757 768 775 775 777 775 776 782 786 786 783 777 771 768 769 775 777 777 779 779 779 780 780 780 781 781 781 781 780 780 779 778 778 778 777 776 775 773 773 772 772 771 770 769 768 766 764 763 762 760 759 758 757 756 755 753 752 750 748 746 744 743 740 739 736 735
874 880 884 885 881 881 883 880 873 844 806 802 820 827 826 822 811 796 777 762 763 768 771 775 775 772 775 779 777 776 772 767 768 768 768 772 774 774 776 777 776 777 777 778 778 778 778 777 777 777 776 776 776 775 774 773 772 771 770 769 768 768 767 766 765 763 762 760 758 757 756 755 754 753 752 751 749 747 744 743 741 740 738 736 734 732
851 854 861 873 873 872 882 889 871 829 800 804 818 823 823 808 783 767 763 765 767 767 769 774 773 771 773 772 769 769 766 764 766 766 766 769 770 771 773 773 773 774 774 774 775 775 775 775 774 774 773 773 773 772 771 771 769 768 768 766 765 765 764 762 761 760 759 757 756 754 753 752 751 751 749 748 746 744 741 739 738 737 735 733 732 729
844 837 834 847 853 851 858 857 829 799 798 808 800 793 798 788 769 765 768 766 766 767 769 769 767 768 769 766 765 764 762 762 763 762 764 767 767 769 770 769 770 771 770 771 772 772 772 772 771 771 771 770 770 770 769 768 766 765 765 763 762 762 760 759 758 757 756 755 753 752 751 749 748 747 746 745 743 741 739 737 735 734 732 731 729 727
828 824 819 825 831 826 817 809 798 794 804 808 789 775 779 778 772 774 773 768 767 767 766 765 764 763 763 764 763 761 760 761 760 760 763 764 764 766 767 766 767 768 768 769 769 769 770 769 768 768 768 767 768 767 766 766 764 762 761 760 759 759 757 756 755 754 753 752 750 749 748 746 745 744 743 742 740 739 737 735 733 731 729 728 727 725
820 826 826 821 819 814 800 789 791 793 792 795 792 783 779 777 774 774 774 771 767 762 761 762 761 758 759 761 760 759 758 758 758 760 761 762 764 765 764 764 765 766 766 767 767 767 768 766 766 766 765 764 765 764 763 763 761 759 758 757 757 756 754 753 752 751 750 749 747 747 745 743 742 741 740 739 738 737 735 733 731 729 727 726 725 723
822 830 830 820 815 815 799 781 782 783 779 784 788 782 778 777 772 769 769 767 762 759 758 758 756 756 757 757 757 757 755 756 759 760 760 761 762 762 762 763 764 764 764 765 765 765 765 764 764 763 762 761 761 760 760 759 758 757 755 754 754 752 751 750 749 748 747 746 744 744 742 740 739 738 737 736 735 734 733 731 729 728 725 723 722 721
822 829 827 819 817 814 798 783 782 781 774 775 779 776 773 770 764 762 763 760 758 757 755 754 754 755 754 755 756 756 755 756 758 758 758 760 760 760 761 761 761 762 762 762 762 763 762 762 761 760 759 758 757 757 756 755 754 754 752 751 751 749 748 747 746 745 744 743 742 740 739 738 737 736 734 733 732 731 730 728 727 725 723 722 721 719
826 827 822 819 816 809 796 787 784 779 769 765 766 767 766 764 760 759 757 756 756 755 753 753 754 754 754 755 755 756 756 756 757 757 757 758 757 758 759 758 759 760 760 759 760 761 760 759 758 757 756 755 754 754 753 751 751 750 749 748 748 746 745 744 743 742 741 740 739 737 736 736 735 733 732 731 730 729 727 726 725 723 721 719 718 717
826 819 815 819 815 804 792 783 781 781 774 764 759 759 760 761 760 758 755 756 756 754 754 754 753 753 754 755 755 756 756 755 755 756 756 755 756 757 756 756 757 757 757 758 758 758 758 757 756 755 754 752 751 751 749 748 748 747 746 746 744 743 742 741 740 739 737 736 736 734 734 733 732 731 730 728 727 726 724 723 723 722 719 717 715 715
818 810 810 814 808 797 787 781 781 784 779 767 759 758 757 758 759 758 755 755 754 753 754 755 753 753 754 754 755 756 755 753 754 754 754 754 754 754 753 754 754 754 755 756 756 755 755 754 753 752 751 749 748 748 746 745 744 743 743 742 741 740 739 738 737 735 734 733 733 732 731 731 729 728 727 726 725 724 721 719 718 717 717 715 713 712